Regional Weather Roundup
Issued by NWS

Home | Current Version | Previous Version | Text Only | Print | Product List | Glossary Off
Versions: 1 2 3 4 5 6 7 8 9 10 11 12 13 14 15 16 17 18 19 20 21 22 23 24 25 26 27 28 29 30 31 32 33 34 35 36 37 38 39 40 41 42 43 44 45 46 47 48 49 50

000
ASUS45 KCYS 021610
RWRWY

WYOMING REGIONAL WEATHER ROUNDUP
NATIONAL WEATHER SERVICE CHEYENNE WY
1000 AM MDT TUE JUN 02 2015

NOTE:  "FAIR" INDICATES FEW OR NO CLOUDS BELOW 12,000 FEET
WITH NO SIGNIFICANT WEATHER AND/OR OBSTRUCTIONS TO VISIBILITY.

WYZ001-021700-
YELLOWSTONE NATIONAL PARK

CITY           SKY/WX    TMP DP  RH WIND       PRES   REMARKS
LK YELLOWSTONE   N/A     43  38  82 CALM      30.14S
W YELLOWSTONE  NOT AVBL

$$
WYZ002>013-054>058-071-098>099-021700-
NORTHERN WYOMING

CITY           SKY/WX    TMP DP  RH WIND       PRES   REMARKS
JACKSON        PTSUNNY   48  45  87 CALM      30.10F
CODY           FAIR      64  45  48 CALM      29.95S
GREYBULL       FAIR      63  51  65 VRB3      29.92F
WORLAND        FAIR      66  49  54 E3        29.92F
SHERIDAN       FAIR      64  54  69 CALM      29.91S
BUFFALO        FAIR      64  51  62 CALM      29.95S
GILLETTE       FAIR      67  54  63 CALM      29.91S
HULETT         FAIR      68  54  60 SW5       29.90S
NEWCASTLE      FAIR      70  48  46 MISG      29.90S

$$
WYZ014>020-022>026-101>103-021700-
CENTRAL WYOMING

CITY           SKY/WX    TMP DP  RH WIND       PRES   REMARKS
BIG PINEY      FAIR      60  39  45 NE8       30.09F
PINEDALE       FAIR      59  37  44 CALM      30.09F
DUBOIS         FAIR      59  30  33 NW10      30.08R
LANDER         FAIR      63  46  54 SE7       29.98F
RIVERTON       FAIR      63  44  50 S3        29.99F
CASPER         FAIR      70  49  47 SW14      29.96F
DOUGLAS        FAIR      70  53  54 NW9       29.94F

$$
WYZ021-027>030-104>119-021700-
SOUTHERN WYOMING

CITY           SKY/WX    TMP DP  RH WIND       PRES   REMARKS
EVANSTON       FAIR      61  38  42 SW13      30.09S
KEMMERER       FAIR      61  37  41 CALM      30.10S
FORT BRIDGER   SUNNY     59  45  58 N3        30.12R
ROCK SPRINGS   FAIR      62  41  46 NW5       30.07R
DIXON          FAIR      66  44  44 CALM      30.10S
RAWLINS        FAIR      64  47  53 W5        30.06F
SARATOGA       FAIR      70  37  30 S6        30.08S
LARAMIE        FAIR      64  46  52 S8        30.08F
CHEYENNE       FAIR      72  51  47 SW6       30.00F
TORRINGTON     FAIR      69  60  73 S6        29.89F
PINE BLUFFS    FAIR      66  55  68 SW6       29.97F

$$


USA.gov is the U.S. government's official web portal to all federal, state and local government web resources and services.